TimeMDT,TemperatureF,Dew PointF,Humidity,Sea Level PressureIn,VisibilityMPH,Wind Direction,Wind SpeedMPH,Gust SpeedMPH,PrecipitationIn,Events,Conditions,WindDirDegrees,DateUTC
12:53 AM,73.0,54.0,51,30.09,10.0,WSW,8.1,-,N/A,,Clear,250,2013-07-02 06:53:00
1:53 AM,68.0,55.0,63,30.09,10.0,Calm,Calm,-,N/A,,Clear,0,2013-07-02 07:53:00
2:53 AM,66.9,54.0,63,30.09,10.0,West,6.9,-,N/A,,Clear,260,2013-07-02 08:53:00
3:53 AM,66.9,54.0,63,30.09,10.0,Calm,Calm,-,N/A,,Clear,0,2013-07-02 09:53:00
4:53 AM,64.9,53.1,65,30.10,10.0,West,3.5,-,N/A,,Clear,260,2013-07-02 10:53:00
5:53 AM,63.0,53.1,70,30.10,10.0,Calm,Calm,-,N/A,,Clear,0,2013-07-02 11:53:00
6:53 AM,64.9,54.0,68,30.10,10.0,Calm,Calm,-,N/A,,Clear,0,2013-07-02 12:53:00
8:53 AM,71.1,55.9,59,30.11,10.0,NW,3.5,-,N/A,,Clear,320,2013-07-02 14:53:00
9:53 AM,73.9,55.0,52,30.10,10.0,Calm,Calm,-,N/A,,Clear,0,2013-07-02 15:53:00
10:53 AM,78.1,55.9,46,30.08,10.0,ESE,4.6,-,N/A,,Clear,110,2013-07-02 16:53:00
11:53 AM,84.9,57.0,38,30.05,10.0,Variable,3.5,-,N/A,,Clear,0,2013-07-02 17:53:00
12:53 PM,90.0,57.0,33,30.03,10.0,NE,4.6,-,N/A,,Clear,50,2013-07-02 18:53:00
1:53 PM,93.0,55.0,28,30.00,10.0,ENE,5.8,-,N/A,,Clear,70,2013-07-02 19:53:00
2:53 PM,95.0,55.0,26,29.99,10.0,NNE,5.8,-,N/A,,Clear,20,2013-07-02 20:53:00
3:53 PM,97.0,53.1,23,29.96,10.0,NNE,10.4,-,N/A,,Clear,30,2013-07-02 21:53:00
4:53 PM,97.0,52.0,22,29.94,10.0,Variable,5.8,-,N/A,,Clear,0,2013-07-02 22:53:00
5:29 PM,93.2,48.2,21,30.01,10.0,East,10.4,-,N/A,Thunderstorm,Mostly Cloudy,80,2013-07-02 23:29:00
5:48 PM,87.8,53.6,31,30.02,10.0,NNE,16.1,-,N/A,Thunderstorm,Thunderstorm,30,2013-07-02 23:48:00
5:49 PM,87.8,53.6,31,30.02,10.0,NE,16.1,-,N/A,Thunderstorm,Thunderstorm,40,2013-07-02 23:49:00
5:53 PM,89.1,53.1,29,29.94,10.0,ENE,16.1,-,N/A,Thunderstorm,Thunderstorm,60,2013-07-02 23:53:00
6:37 PM,86.0,51.8,31,30.01,10.0,SSE,11.5,19.6,N/A,,Clear,160,2013-07-03 00:37:00
6:53 PM,88.0,48.9,26,29.94,10.0,South,11.5,-,N/A,,Clear,170,2013-07-03 00:53:00
7:53 PM,90.0,55.0,30,29.91,10.0,North,4.6,-,N/A,,Clear,350,2013-07-03 01:53:00
8:53 PM,82.9,59.0,44,29.93,10.0,SSW,3.5,-,N/A,,Clear,210,2013-07-03 02:53:00
9:53 PM,81.0,55.0,41,29.91,10.0,WSW,8.1,-,N/A,,Clear,250,2013-07-03 03:53:00
10:53 PM,77.0,55.9,48,29.92,10.0,Calm,Calm,-,N/A,,Clear,0,2013-07-03 04:53:00
11:53 PM,75.9,57.0,52,29.91,10.0,Calm,Calm,-,N/A,,Clear,0,2013-07-03 05:53:00